Ouarzazate, Morocco

10:17 AM WET on May 24, 2017 (GMT +0000)
Ouarzazate

Weather History for GMMZ - March, 2013

Change the Weather History Date:

Monday, March 11, 2013

  Actual Average Record
Temperature  
Mean Temperature 60 °F -  
Max Temperature 75 °F 74 °F - ()
Min Temperature 45 °F 47 °F - ()
Degree Days  
Heating Degree Days 5    
Growing Degree Days 10 (Base 50)    
Moisture  
Dew Point 22 °F    
Average Humidity 24    
Maximum Humidity 46    
Minimum Humidity 4    
Precipitation  
Precipitation 0.00 in 0.01 in - ()
Sea Level Pressure  
Sea Level Pressure 30.01 in    
Wind  
Wind Speed 3 mph ()    
Max Wind Speed 9 mph    
Max Gust Speed -    
Visibility 11.4 miles    
Events      
T = Trace of Precipitation, MM = Missing Value Source: Averaged Metar Reports

Daily Weather History Graph

Daily Weather History Graph

Search for Another Location

Airport or City:

Trip Planner

Search our weather history database for the weather conditions in past years. The results will help you decide how hot, cold, wet, or windy it might be!

Date:

Astronomy

Mar. 11, 2013 Rise Set
Actual Time 6:42 AM WET 6:33 PM WET
Civil Twilight 6:18 AM WET 6:57 PM WET
Nautical Twilight 5:50 AM WET 7:25 PM WET
Astronomical Twilight 5:22 AM WET 7:53 PM WET
Moon 6:09 AM WET (3/11) 6:27 PM WET (3/11)
Length of Visible Light 12h 38m
Length of Day
11h 50m
Waning Crescent, 0% of the Moon is Illuminated
Mar 11
Waning Crescent
Mar 11
New
Mar 19
First Quarter
Mar 27
Full
Apr 3
Last Quarter

Hourly Weather History & Observations

Time (WET) Temp. Windchill Dew Point Humidity Pressure Visibility Wind Dir Wind Speed Gust Speed Precip Events Conditions
12:00 AM 52 °F - 28 °F 27%  in 12 mi SSW 1.2 mph - -   Scattered Clouds
12:00 AM 51.8 °F - 28.4 °F 41% 30.04 in 6.2 mi NW 1.2 mph - N/A   Partly Cloudy
2:00 AM 50.0 °F - 26.6 °F 40% 30.04 in - WNW 2.3 mph - N/A   Clear
3:00 AM 47 °F - 26 °F 30%  in 12 mi West 6.9 mph - -   Clear
3:00 AM 48.2 °F - 24.8 °F 40% 30.01 in - West 6.9 mph - N/A   Clear
4:00 AM 48.2 °F - 23.0 °F 37% 30.01 in - WNW 9.2 mph - N/A   Clear
5:00 AM 46.4 °F 44.3 °F 23.0 °F 40% 30.01 in - WNW 4.6 mph - N/A   Clear
6:00 AM 49 °F - 20 °F 19%  in 12 mi West 5.8 mph - -   Clear
6:00 AM 48.2 °F - 19.4 °F 32% 30.01 in - West 5.8 mph - N/A   Clear
7:00 AM 46.4 °F 43.5 °F 23.0 °F 40% 30.04 in - SW 5.8 mph - N/A   Clear
8:00 AM 46.4 °F - 26.6 °F 46% 30.06 in - NW 1.2 mph - N/A   Clear
9:00 AM 52 °F - 25 °F 23%  in 12 mi SSW 1.2 mph - -  
9:00 AM 51.8 °F - 24.8 °F 35% 30.06 in - Variable 1.2 mph - N/A   Clear
10:00 AM 55.4 °F - 24.8 °F 31% 30.06 in - Variable 2.3 mph - N/A   Clear
12:00 PM 65 °F - 13 °F 6%  in 12 mi South 1.2 mph - -   Clear
1:00 PM 68.0 °F - 14.0 °F 12% 30.04 in - SSE 4.6 mph - N/A   Clear
2:00 PM 71.6 °F - 6.8 °F 8% 30.01 in - South 4.6 mph - N/A   Clear
3:00 PM 73 °F - 13 °F 4%  in 12 mi South 5.8 mph - -   Clear
3:00 PM 73.4 °F - 14.0 °F 10% 29.98 in - South 6.9 mph - N/A   Clear
4:00 PM 73.4 °F - 14.0 °F 10% 29.95 in - SSE 5.8 mph - N/A   Clear
5:00 PM 73.4 °F - 14.0 °F 10% 29.95 in - Variable 3.5 mph - N/A   Clear
6:00 PM 74 °F - 16 °F 5%  in 12 mi South 2.3 mph - -   Clear
6:00 PM 73.4 °F - 15.8 °F 11% 29.95 in - Variable 2.3 mph - N/A   Clear
7:00 PM 71.6 °F - 15.8 °F 12% 29.95 in - SSW 4.6 mph - N/A   Clear
8:00 PM 68.0 °F - 17.6 °F 15% 29.95 in - WSW 4.6 mph - N/A   Clear
9:00 PM 66 °F - 29 °F 15%  in 12 mi SSE 4.6 mph - -   Partly Cloudy
9:00 PM 66.2 °F - 30.2 °F 26% 30.01 in - SSE 4.6 mph - N/A   Clear
10:00 PM 62.6 °F - 32.0 °F 32% 30.01 in - Variable 2.3 mph - N/A   Clear
11:00 PM 60.8 °F - 35.6 °F 39% 30.01 in - South 4.6 mph - N/A   Clear